Location: Düngen
(52.0952°N, 10.0219°E)
Time: 15:18:54
(UTC+00:00)

Meteor 1-31 Rocket - Pass Details

Date: 11 March 2026
Orbit: 457 x 471 km, 97.6° (Epoch: 14 April)

Event Time Altitude Azimuth Distance (km) Brightness Sun altitude
Exits shadow 18:04:22 - 131° (SE) 1,932 5.1 -8.1°
Reaches altitude 10° 18:05:13 10° 125° (SE) 1,610 4.7 -8.2°
Maximum altitude 18:08:10 27° 66° (ENE) 926 3.5 -8.6°
Drops below altitude 10° 18:11:10 10° 7° (N) 1,629 5.2 -9.1°
Sets 18:13:25 0° 355° (N) 2,513 6.3 -9.4°
